TimePST,TemperatureF,Dew PointF,Humidity,Sea Level PressureIn,VisibilityMPH,Wind Direction,Wind SpeedMPH,Gust SpeedMPH,PrecipitationIn,Events,Conditions,WindDirDegrees,DateUTC
12:53 AM,60.1,53.1,78,30.04,7.0,Calm,Calm,-,N/A,,Clear,0,2012-11-04 07:53:00
1:53 AM,57.9,52.0,81,30.04,7.0,Calm,Calm,-,N/A,,Clear,0,2012-11-04 08:53:00
1:53 AM,57.0,51.1,81,30.03,6.0,Calm,Calm,-,N/A,,Haze,0,2012-11-04 09:53:00
2:53 AM,55.9,51.1,84,30.03,6.0,Calm,Calm,-,N/A,,Haze,0,2012-11-04 10:53:00
3:53 AM,55.9,50.0,80,30.03,7.0,Calm,Calm,-,N/A,,Clear,0,2012-11-04 11:53:00
4:53 AM,54.0,48.9,83,30.03,7.0,Calm,Calm,-,N/A,,Clear,0,2012-11-04 12:53:00
5:53 AM,54.0,48.0,80,30.04,6.0,Calm,Calm,-,0.01,,Haze,0,2012-11-04 13:53:00
6:53 AM,55.0,48.9,80,30.05,5.0,Calm,Calm,-,N/A,,Haze,0,2012-11-04 14:53:00
7:53 AM,64.0,48.9,58,30.06,8.0,Calm,Calm,-,N/A,,Clear,0,2012-11-04 15:53:00
8:53 AM,73.0,52.0,48,30.06,8.0,Calm,Calm,-,N/A,,Clear,0,2012-11-04 16:53:00
9:53 AM,82.0,52.0,35,30.06,10.0,West,3.5,-,N/A,,Clear,280,2012-11-04 17:53:00
10:53 AM,89.1,36.0,15,30.04,10.0,WNW,3.5,-,N/A,,Clear,290,2012-11-04 18:53:00
11:53 AM,91.9,30.0,11,30.01,10.0,WNW,3.5,-,N/A,,Clear,290,2012-11-04 19:53:00
12:53 PM,93.0,28.9,10,29.99,10.0,Calm,Calm,-,N/A,,Clear,0,2012-11-04 20:53:00
1:53 PM,93.9,28.9,10,29.98,10.0,NW,4.6,-,N/A,,Clear,320,2012-11-04 21:53:00
2:53 PM,93.9,28.0,10,29.98,10.0,West,4.6,-,N/A,,Clear,280,2012-11-04 22:53:00
3:53 PM,91.0,33.1,13,29.97,10.0,West,4.6,-,N/A,,Clear,280,2012-11-04 23:53:00
4:53 PM,84.9,34.0,16,29.99,10.0,WNW,6.9,-,N/A,,Clear,290,2012-11-05 00:53:00
5:53 PM,81.0,33.1,18,30.01,10.0,NW,3.5,-,N/A,,Clear,310,2012-11-05 01:53:00
6:53 PM,73.9,37.0,26,30.02,10.0,Calm,Calm,-,N/A,,Clear,0,2012-11-05 02:53:00
7:47 PM,77.0,37.4,24,30.03,20.0,West,11.5,-,N/A,,Clear,270,2012-11-05 03:47:00
7:53 PM,72.0,37.9,29,30.02,10.0,Calm,Calm,-,N/A,,Clear,0,2012-11-05 03:53:00
8:53 PM,69.1,37.0,31,30.03,10.0,East,4.6,-,N/A,,Clear,90,2012-11-05 04:53:00
9:53 PM,66.9,41.0,39,30.04,10.0,Calm,Calm,-,N/A,,Clear,0,2012-11-05 05:53:00
10:53 PM,64.9,42.1,43,30.03,10.0,Calm,Calm,-,N/A,,Clear,0,2012-11-05 06:53:00